Lid_Strength_Index
3 6 5 6 10 11 12 11 10 10 10 7 7 7 8 8 9 12 2 1 1 0 -1 -1 -1 -1 -1 -1 -2 -2 -2 -2 -2 -1 -1 -1 -1 -1 -0 0 0 0 0 1 1 2 2 2 2
5 5 5 7 11 14 13 10 10 9 7 7 8 8 8 9 6 4 3 1 1 -0 -1 -1 -1 -1 -1 -1 -1 -1 -2 -2 -1 -1 -1 -1 -0 0 1 1 1 1 1 1 1 2 2 2 2
6 6 8 10 12 14 13 10 10 9 6 8 8 7 6 8 4 4 2 1 1 0 -1 -1 -1 -1 -1 -1 -1 -2 -2 -1 -1 -1 0 1 1 1 2 2 2 1 1 1 1 2 2 2 3
7 7 9 12 13 11 10 10 9 9 9 7 7 8 5 4 4 3 1 1 2 1 0 -1 -1 -1 -1 -1 -1 -1 -1 -1 -0 0 1 1 2 2 2 2 2 2 2 2 2 2 3 3 3
8 9 12 13 13 11 10 11 9 10 9 9 9 9 7 4 2 2 2 3 3 3 2 1 -1 -1 -1 -1 -1 -0 -0 0 1 1 1 2 3 3 3 3 2 2 2 3 3 3 3 3 4
10 10 14 15 13 12 12 12 11 10 10 10 9 8 6 3 2 2 3 4 3 4 3 3 2 1 0 0 0 1 1 1 2 2 3 3 3 3 3 3 3 3 3 3 4 4 4 4 4
11 13 14 14 14 13 12 12 11 10 10 9 8 9 6 4 1 2 3 4 4 4 5 4 4 3 2 2 2 2 2 3 3 4 4 5 5 5 5 4 4 4 4 4 4 5 5 4 5
11 12 14 15 15 13 12 12 11 11 10 9 8 9 8 4 1 2 3 4 4 5 5 5 5 5 5 4 3 3 4 5 5 5 6 7 7 6 6 6 6 6 6 6 5 5 6 6 6
10 13 15 14 15 14 12 12 12 11 10 8 6 8 6 3 1 3 4 5 5 5 6 6 6 7 7 6 6 6 6 7 7 7 7 7 8 8 8 7 7 7 7 6 6 6 7 8 8
12 14 14 13 14 14 13 12 13 12 11 10 8 6 4 2 2 3 4 4 5 6 6 6 6 8 7 7 8 8 8 8 8 8 7 8 7 7 8 8 8 8 9 8 7 7 8 9 9
12 14 13 13 12 12 13 13 13 12 12 11 10 6 4 3 3 3 3 4 5 5 5 5 6 6 6 6 7 7 7 7 7 7 7 7 8 8 9 9 9 10 11 10 10 10 10 9 9
14 12 12 12 12 13 13 12 13 13 12 10 9 5 4 4 4 3 4 4 4 4 4 4 5 7 6 6 7 7 7 8 7 7 7 8 8 8 9 9 10 10 10 10 9 9 9 9 9
13 13 12 12 12 13 12 14 13 13 11 6 5 4 4 4 4 4 4 4 4 4 4 5 6 7 7 7 7 7 8 8 8 8 8 8 8 9 9 9 9 10 9 10 10 10 10 9 9
13 13 13 12 12 12 13 14 13 13 11 6 5 5 5 5 4 5 5 4 5 4 4 5 6 7 7 7 7 7 8 8 8 8 8 8 9 9 9 9 9 9 10 10 10 10 10 10 10
13 14 14 13 12 12 12 14 14 13 12 7 6 5 5 5 5 5 4 4 4 5 4 5 5 7 7 7 7 8 8 8 8 8 8 8 8 9 9 9 9 9 9 10 9 9 9 9 9
15 15 17 14 13 12 13 15 13 13 13 12 9 8 8 8 9 10 9 9 8 5 6 6 6 7 7 7 7 7 7 7 7 8 8 8 8 9 9 9 9 9 9 10 10 10 10 10 10
16 18 15 14 13 14 13 15 12 13 13 14 13 12 11 11 10 9 8 8 8 8 5 6 7 7 8 8 8 8 8 8 8 8 8 8 8 9 9 9 9 9 10 10 10 9 10 10 10
18 17 16 16 15 15 15 15 13 13 13 14 14 13 12 11 10 10 9 9 8 8 8 6 7 7 8 8 8 9 9 9 8 8 8 8 8 9 9 9 10 10 10 10 10 11 10 10 11
16 16 16 15 15 16 16 17 15 14 14 14 14 14 13 12 11 10 9 9 9 8 8 8 8 8 8 9 9 9 9 9 9 8 8 8 8 9 9 9 10 10 10 11 11 10 11 11 10
15 16 17 16 15 16 18 17 15 15 15 14 14 14 13 12 11 10 9 9 9 9 8 8 7 7 8 8 8 8 8 8 8 8 8 8 8 8 8 9 9 10 10 10 11 11 11 11 11
17 17 18 17 16 17 19 16 15 14 14 13 13 12 12 11 11 10 9 10 10 9 9 8 7 7 7 7 7 8 7 7 7 8 8 8 7 7 8 8 8 9 9 10 10 11 11 11 10
16 16 16 17 19 21 19 22 17 16 16 14 14 13 13 12 11 10 11 10 11 10 9 8 7 7 7 7 7 8 8 8 8 8 7 7 7 7 7 7 8 8 8 9 9 9 9 9 10
17 16 16 18 23 22 22 24 18 18 17 16 15 14 13 13 11 11 11 11 10 10 10 8 8 7 7 7 7 8 8 8 8 8 8 8 8 8 8 7 8 8 8 8 8 9 9 9 9
15 17 19 20 23 26 28 25 19 18 17 16 15 15 14 13 12 12 11 11 11 11 10 10 9 10 9 9 8 8 8 9 9 9 9 9 9 9 9 8 8 8 8 8 8 8 9 9 9
17 21 26 25 27 24 32 24 18 16 16 15 15 15 14 13 13 13 12 12 12 12 11 10 10 11 10 10 10 9 9 9 10 10 10 10 10 10 10 9 10 9 9 9 8 8 8 9 9
18 22 24 29 27 25 30 25 18 16 15 16 15 15 14 14 13 13 12 12 12 12 13 12 12 12 11 11 11 10 10 10 10 10 11 11 11 10 10 10 10 10 10 10 9 9 9 9 9
19 24 20 29 36 29 25 21 17 16 18 17 16 15 15 15 13 13 12 12 13 13 12 12 12 12 12 12 11 11 11 11 11 11 11 11 11 10 10 10 10 10 10 10 10 10 10 10 9
19 18 23 25 28 30 27 30 21 21 20 18 17 18 16 15 14 13 13 13 13 13 13 13 12 12 12 12 12 12 12 11 11 11 11 11 11 11 11 11 10 10 10 10 10 10 10 10 10
22 24 23 24 24 28 30 23 21 23 24 21 20 18 19 18 15 14 13 13 13 13 13 13 13 12 12 12 11 11 12 12 12 11 11 11 11 11 11 11 11 11 11 11 11 11 11 11 11
19 22 20 24 27 28 26 25 19 23 26 28 21 18 17 18 17 15 14 13 13 13 13 12 13 13 12 12 12 11 11 11 11 12 12 11 12 11 11 11 11 11 11 11 11 12 11 12 12